SKYSAT-C10 (42988 NORAD) Tracking and Keplerian Element Data

This shows tracking and keplerian element data for the satellite.

Feedback or suggestion? Click here.




ElementValue
Catalog42988
NameSKYSAT-C10
Epoch Orbit3933
Epoch Day198.88405487
Epoch Year2018
RAAN312.2581
Inclination97.4059
Eccentricity0.0004356
Argument of Perigee358.5353
Mean Anonmoly1.5869
Mean Motion15.21398248
Decay Rate3.94E-06
L11 42988U 17068B 18198.88405487 .00000394 00000-0 20619-4 0 9992
L22 42988 97.4059 312.2581 0004356 358.5353 1.5869 15.21398248 39339

Live tracking and technical data element details for SKYSAT-C10 (NORAD 42988). SKYSAT-C10 can be tracked NOW for your location showing map with azimuth and elevation plus other details from your city location.

Track the satellite on the map from your city or location and see movement details for azimuth, elevation, latitude, longitude, range, height, and movement on the map or in text.







IsCatalogInMostPopularTable: catalog: 42988, numindb: 95
Update: records affected: 1



GetName: 42988 SKYSAT-C10

Hit Count: updated at: Thu, 19 Jul 2018 03:44:10 GMT